Location: Gadern
(49.5873°N, 8.8138°E)
Time: 00:22:19
(UTC+00:00)

Lacrosse 5 rocket - Pass Details

Date: 19 May 2025
Orbit: 419 x 515 km, 57.0° (Epoch: 23 June)

Event Time Altitude Azimuth Distance (km) Brightness Sun altitude
Rises 19:47:08 0° 304° (WNW) 2,510 7.2 -5.9°
Reaches altitude 10° 19:49:20 10° 307° (NW) 1,612 5.6 -6.1°
Maximum altitude 19:52:56 67° 30° (NNE) 492 1.1 -6.6°
Drops below altitude 10° 19:56:23 10° 114° (ESE) 1,551 3.0 -7.0°
Enters shadow 19:56:41 - 115° (ESE) 1,673 3.2 -7.0°
